Regional Weather Roundup
Issued by NWS

Home | Current Version | Previous Version | Graphics & Text | Print | Product List | Glossary On
Versions: 1 2 3 4 5 6 7 8 9 10 11 12 13 14 15 16 17 18 19 20 21 22 23 24 25 26 27 28 29 30 31 32 33 34 35 36 37 38 39 40 41 42 43 44 45 46 47 48 49 50
000
ASUS43 KMPX 190101
RWRMN
WEATHER ROUNDUP FOR MINNESOTA
NATIONAL WEATHER SERVICE TWIN CITIES/CHANHASSEN MN
700 PM CST SAT NOV 18 2017


NOTE: "FAIR" INDICATES FEW OR NO CLOUDS BELOW 12,000 FEET WITH NO
SIGNIFICANT WEATHER AND/OR OBSTRUCTIONS TO VISIBILITY. N/A MEANS
CURRENT SKY AND/OR WEATHER CONDITIONS ARE NOT AVAILABLE.

MNZ060>063-068>070-190200-
   Twin Cities Metro

CITY           SKY/WX    TMP DP  RH WIND       PRES   REMARKS
TWIN CITIES    PTCLDY    26  16  65 NW21      29.98R WCI  12
ST PAUL        MOCLDY    27  14  58 NW21G29   29.99R WCI  13
CRYSTAL        CLEAR     24  10  55 NW18G29   29.98R WCI  10
BLAINE         PTCLDY    27  16  63 NW20G25   29.97R WCI  13
LAKEVILLE      PTCLDY    25  18  74 NW18G24   29.97R WCI  11
EDEN PRAIRIE   PTCLDY    27  15  61 NW20G30   29.98R WCI  13
SOUTH ST PAUL  PTCLDY    28  15  58 NW14G24   29.97S WCI  16
LAKE ELMO      MOCLDY    28  18  64 NW15      29.97S WCI  17
$$
MNZ001>005-007-008-013>017-022>024-027-028-190200-
   Northwest Minnesota

CITY           SKY/WX    TMP DP  RH WIND       PRES   REMARKS
BEMIDJI        CLEAR     13   7  78 W10       29.99R WCI   0
HALLOCK        CLOUDY    10   5  79 W5        30.02F WCI   2
ROSEAU         CLEAR     14   9  79 W8        29.99R WCI   3
WARROAD        CLEAR     12   9  85 W9        29.98R WCI   0
CROOKSTON      PTCLDY    18  10  73 NW10      30.05F WCI   6
FOSSTON        PTCLDY    12   7  79 W8        30.01S WCI   1
DETROIT LAKES  CLEAR     18  10  73 NW8       30.04S WCI   7
MOORHEAD       CLEAR     18   9  68 CALM      30.09S
PARK RAPIDS    CLEAR     15   8  73 NW16G22   29.98S WCI  -1
MAHNOMEN       FAIR      15   8  75 W14       30.02F WCI   0
$$
MNZ006-009>011-018-025>026-190200-
   North Central Minnesota

CITY           SKY/WX    TMP DP  RH WIND       PRES   REMARKS
BAUDETTE       CLOUDY    15   7  70 W13       29.93F WCI   1
FLAG ISLAND    CLOUDY    14   7  73 W16G24    29.95R WCI  -2
INTL FALLS     LGT SNOW  15   8  73 NW9       29.93R WCI   3
WASKISH        CLOUDY    16  10  79 W13G20    29.96F WCI   2
BIG FORK       FLURRIES  16   9  73 NW5       29.94S WCI   9
LONGVILLE      PTCLDY    16   9  73 NW15G22   29.97S WCI   1
GRAND RAPIDS   FLURRIES  16  10  77 NW14      29.96R WCI   2
CRANE LAKE     FLURRIES  16   9  73 W7        29.92S WCI   6
ORR            CLOUDY    16   7  67 NW12      29.88S WCI   3
COOK           FLURRIES  16   9  73 NW5       29.91S WCI   9
WALKER         FAIR      13   8  78 W9        29.98S WCI   1
$$
MNZ012-019>021-037-190200-
   Northeast Minnesota

CITY           SKY/WX    TMP DP  RH WIND       PRES   REMARKS
DULUTH         CLOUDY    19  12  74 NW16      29.87R WCI   4
ELY            CLOUDY    16   9  73 W10G17    29.87R WCI   3
HIBBING        CLOUDY    16   9  74 NW15      29.91R WCI   1
EVELETH        FLURRIES  18   9  68 W13G23    29.91R WCI   4
DULUTH HARBOR  CLOUDY    27  18  69 W14G20    29.94R WCI  15
TWO HARBORS    FLURRIES  25  16  68 NW6       29.87R WCI  18
SILVER BAY     FLURRIES  21  14  73 NW5       29.84R WCI  15
GRAND MARAIS     N/A     26  16  65 VRB5      29.84S WCI  20
G MARAIS ARPRT FLURRIES  18  10  73 NW7       29.76S WCI   8
$$
MNZ029>031-032-039>041-046>048-054>057-064-190200-
   West Central Minnesota

CITY           SKY/WX    TMP DP  RH WIND       PRES   REMARKS
FERGUS FALLS   CLEAR     16   9  73 NW10      30.10R WCI   3
WHEATON        CLEAR     19   9  63 NW7       30.12R WCI  10
MORRIS         CLEAR     19  10  68 NW14      30.07R WCI   6
ALEXANDRIA     CLEAR     20  10  65 NW17G23   30.03R WCI   5
ELBOW LAKE     FAIR      18  10  71 W14       30.06S HAZE    WCI   4
WADENA         CLEAR     16   9  73 NW10G20   30.00S WCI   3
GLENWOOD       CLEAR     19  10  68 NW18G24   30.02F WCI   4
APPLETON       CLEAR     23  10  58 NW9       30.08S WCI  13
BENSON         CLEAR     19  10  68 N12       30.07F WCI   7
ORTONVILLE     CLEAR     21  10  63 MISG      30.09S
MADISON        CLEAR     25  14  63 NW10      30.09S WCI  15
WILLMAR        FAIR      23  14  68 NW15      30.05F WCI  10
$$
MNZ033>034-036-042>043-049>051-058-059-190200-
   Central Minnesota

CITY           SKY/WX    TMP DP  RH WIND       PRES   REMARKS
ST CLOUD       CLEAR     20  12  71 NW15      30.01R WCI   6
SAUK CENTRE    FAIR      20  12  69 NW12      30.02F WCI   8
PAYNESVILLE    CLEAR     21  16  79 NW9       30.03S WCI  11
AITKIN         PTCLDY    18   9  68 NW10G16   29.95S WCI   6
PINE RIVER     CLEAR     14   9  79 NW7       30.02R WCI   4
BRAINERD       PTCLDY    18   9  68 NW12      29.99R WCI   5
STAPLES        CLEAR     16  10  79 NW12      30.01R WCI   3
LONG PRAIRIE   FAIR      19  12  73 W7        30.01S WCI  10
LITTLE FALLS   CLEAR     19   7  58 NW7       30.01F WCI  10
LITCHFIELD     CLEAR     25  16  68 NW13G23   30.03S WCI  13
BUFFALO        CLEAR     23  12  63 W14       30.03R WCI  10
MAPLE LAKE     CLEAR     23  15  71 NW12      30.02S WCI  12
HUTCHINSON     CLOUDY    24  16  71 NW13      30.04S WCI  12
$$
MNZ037-044-045-052-053-190200-
   East Central Minnesota

CITY           SKY/WX    TMP DP  RH WIND       PRES   REMARKS
PRINCETON      CLEAR     21  12  68 W12G20    30.00R WCI   9
MORA           CLOUDY    23  14  68 W12       29.98R WCI  12
CAMBRIDGE      MOCLDY    25  14  63 W13G18    29.99R WCI  13
RUSH CITY      PTCLDY    24  15  67 NW8G17    29.97R WCI  15
MOOSE LAKE     CLOUDY    21  12  68 NW12G20   29.93R WCI   9
HINCKLEY       MOCLDY    23  16  74 NW9       29.96R WCI  13
CLOQUET        CLOUDY    19  10  68 W10G22    29.91R WCI   8
MCGREGOR       MOCLDY    19  12  73 NW13G18   29.95S WCI   7
$$
MNZ071>073-080-081-089-090-097-098-190200-
   Southwest Minnesota

CITY           SKY/WX    TMP DP  RH WIND       PRES   REMARKS
MONTEVIDEO     CLEAR     21  10  63 N8        30.08S WCI  12
GRANITE FALLS  CLEAR     25  15  64 NW17      30.09S WCI  12
CANBY          CLEAR     24  14  64 NW10      30.10S WCI  14
MARSHALL       CLEAR     25  13  60 NW15      30.08R WCI  13
REDWOOD FALLS  CLEAR     25  12  58 NW13G18   30.07R WCI  14
OLIVIA         CLEAR     23  14  68 NW15G24   30.05R WCI  10
PIPESTONE      CLEAR     27  16  63 N12       30.06S WCI  16
WINDOM         CLEAR     25  10  54 NW13      30.05R WCI  13
WORTHINGTON    CLEAR     26  15  63 NW15      30.06R WCI  14
JACKSON        CLEAR     27  14  59 NW16      30.05R WCI  14
SLAYTON        CLEAR     26  15  61 NW18      30.06R WCI  13
$$
MNZ065>067-074>077-082>085-091>093-190200-
   South Central Minnesota

CITY           SKY/WX    TMP DP  RH WIND       PRES   REMARKS
MANKATO        CLEAR     25  15  66 NW21G29   30.03R WCI  11
NEW ULM        CLEAR     25  14  63 NW14      30.05R WCI  13
ST JAMES       CLEAR     25  16  68 NW13      30.06R WCI  13
FAIRMONT       CLEAR     26  16  65 NW20G26   30.04R WCI  12
GLENCOE        CLEAR     25  16  67 NW18G26   30.02R WCI  11
FARIBAULT      MOCLDY    27  18  69 W15G22    29.99R WCI  15
OWATONNA       MOCLDY    27  19  74 NW14G23   29.98R WCI  15
WASECA         CLEAR     27  16  63 NW23G30   30.01S WCI  12
ALBERT LEA     CLEAR     27  16  63 NW15G24   29.98R WCI  15
$$
MNZ078>079-086>088-094>096-190200-
   Southeast Minnesota

CITY           SKY/WX    TMP DP  RH WIND       PRES   REMARKS
ROCHESTER      CLEAR     27  21  78 NW22G32   29.93R WCI  13
RED WING       CLEAR     28  14  54 NW15G21   29.95R WCI  17
STANTON        MOCLDY    29  19  67 NW22      29.96R WCI  16
DODGE CENTER   PTCLDY    27  19  74 NW16      29.95R WCI  14
WINONA         CLEAR     34  23  64 NW20G28   29.92R WCI  22
AUSTIN         CLEAR     27  19  74 NW22      29.95R WCI  12
PRESTON        CLEAR     28  21  74 NW16G28   29.91R WCI  16
$$
ABBREVIATIONS USED IN REMARKS
   TC - TEMPERATURES IN CELSIUS
  WCI - WIND CHILL INDEX
   HX - HEAT INDEX
  VSB - VISIBILITY
$$




USA.gov is the U.S. government's official web portal to all federal, state and local government web resources and services.